Location: Malvern Link
(52.1333°N, 2.3000°W)
Time: 11:29:47
(UTC+00:00)

USA 234 - Pass Details

Date: 18 September 2020
Orbit: 1102 x 1106 km, 123.0° (Epoch: 16 October)

Event Time Altitude Azimuth Distance (km) Brightness Sun altitude
Rises 23:43:49 0° 77° (ENE) 3,923 6.2 -36.3°
Reaches altitude 10° 23:46:20 10° 74° (ENE) 2,965 5.6 -36.4°
Enters shadow 23:50:38 41° 53° (NE) 1,541 4.1 -36.4°
Exits shadow 23:54:28 46° 307° (NW) 1,458 4.0 -36.5°
Drops below altitude 10° 23:59:08 10° 280° (W) 2,966 5.6 -36.5°
Sets 00:01:38 0° 277° (W) 3,925 6.2 -36.5°
